Other Public Products
Issued by NWS Grand Forks, ND

Home | Current Version | Previous Version | Graphics & Text | Print | Product List | Glossary On
Versions: 1 2 3 4 5 6 7 8 9 10 11 12 13 14 15 16 17 18 19 20 21 22 23 24 25 26 27 28 29 30 31 32 33 34 35 36 37 38 39 40 41 42 43 44 45 46 47 48 49 50
000
FPUS83 KFGF 290231
OPUFGF
PRAIRIE TO PINES WEATHER ROUNDUP
NATIONAL WEATHER SERVICE EASTERN NORTH DAKOTA/GRAND FORKS ND
800 PM CST SUN DEC 28 2014

 **SATELLITE DATA USED TO AUGMENT SKY COVER AT AUTOMATED STATIONS**
 *****  WEATHER ACROSS EASTERN NORTH DAKOTA  *****

CITY           SKY/WX    TMP DP  RH WIND       PRES   REMARKS
GRAND FORKS    CLEAR     -9 -13  83 NW5       30.46R WCI -20
GRAND FORKS AF CLEAR     -8 -11  84 NW5       30.46R WCI -19
GRAND CITY NWS   N/A     -6 N/A N/A VRB3        N/A
BUXTON           N/A     -4  -9  80 N5          N/A  WCI -15
DEVILS LAKE    PTCLDY    -6 -13  71 CALM      30.39R
FARGO          CLEAR     -2  -9  72 N10       30.43R WCI -19
WAHPETON ARPT  PTCLDY     1  -4  78 N13       30.40R WCI -16
$$

 *****  WEATHER ACROSS CENTRAL AND WESTERN NORTH DAKOTA  *****

CITY           SKY/WX    TMP DP  RH WIND       PRES   REMARKS
JAMESTOWN      CLOUDY    -1  -7  75 N12       30.37R WCI -18
BISMARCK       CLOUDY     3  -2  79 NE12      30.36R WCI -13
MINOT          MOCLDY    -6 -11  79 NW9       30.39R WCI -23
MINOT AFB      MOCLDY    -8 -12  83 NW7       30.40R WCI -22
GARRISON         N/A      1  -4  79 NE10      30.35R WCI -15
WILLISTON      CLOUDY     5  -3  69 N13       30.38R WCI -12
DICKINSON      LGT SNOW   8   2  76 NE15      30.24R WCI  -9
HETTINGER      LGT SNOW  12   7  80 NE14      30.19R WCI  -3
$$

 *****  OTHER OBSERVATIONS NORTHEAST NORTH DAKOTA  *****

CITY           SKY/WX    TMP DP  RH WIND       PRES   REMARKS
WALHALLA         N/A     -6  -9  84 N7        30.47R WCI -20
LANGDON        FAIR     -11 -17  77 N12       30.38R WCI -31
CAVALIER       FAIR      -4  -9  77 NW8       30.47R WCI -19
GRAFTON        NOT AVBL
CANDO          FAIR      -8 -11  84 N7        30.42R WCI -22
FORT TOTTEN      N/A     -7 -13  76 CALM      29.95
ROLLA          FAIR      -9 -13  84 N14       30.38R WCI -31
RUGBY          FAIR      -8 -11  84 W3        30.41R
 ***** THE ABOVE OBSERVATIONS ARE NON NWS ARE NOT QUALITY
        CONTROLLED AND MAY MIS-REPORT RAIN FOR SNOW...
$$

 *****  OTHER OBSERVATIONS SOUTHEAST NORTH DAKOTA *****

CITY           SKY/WX    TMP DP  RH WIND       PRES   REMARKS
COOPERSTOWN    NOT AVBL
VALLEY CITY    FAIR      -2  -4  92 NE9       30.39R WCI -18
OAKES            N/A      1  -2  85 N16       30.37R WCI -18
GWINNER        CLEAR      3  -4  72 N14       30.38R WCI -15
SHEYENNE NWR     N/A     -1  -8  70 NE9       29.95  WCI -16
BUFFALO        NOT AVBL
WYNDMERE         N/A      1  -6  71 VRB8        N/A  WCI -12
 ***** THE ABOVE OBSERVATIONS ARE NON NWS ARE NOT QUALITY
       CONTROLLED AND MAY MIS-REPORT RAIN FOR SNOW...
$$

  *****  WEATHER ACROSS NORTHERN MINNESOTA  *****

CITY           SKY/WX    TMP DP  RH WIND       PRES   REMARKS
FLAG ISLAND    CLEAR     -9 -15  77 NW18      30.37R WCI -33
WARROAD        CLEAR     -9 -15  77 NW13      30.39R WCI -30
ROSEAU         CLEAR     -8 -13  77 NW7       30.40R WCI -22
HALLOCK        PTCLDY    -8 -15  71 N8        30.45R WCI -23
THF RVR FALLS  CLEAR     -8 -11  84 NW9       30.40R WCI -25
HALSTAD          N/A     -4 -11  72 N10         N/A  WCI -22
FOSSTON        CLEAR     -9 -13  84 CALM      30.38R
BAUDETTE       PTCLDY    -5 -11  75 W3        30.34R
WASKISH        CLEAR     -2  -8  78 W9        30.36R WCI -18
CROOKSTON      FAIR      -6 -11  77 N8        30.45S WCI -21
$$
  *****  WEATHER ACROSS CENTRAL AND WEST MINNESOTA  *****

CITY           SKY/WX    TMP DP  RH WIND       PRES   REMARKS
BEMIDJI        CLEAR     -5  -9  83 W7        30.33R WCI -19
PARK RAPIDS    CLEAR      1  -6  72 NW8       30.31R WCI -13
WADENA         CLEAR      3  -2  78 N7        30.31R WCI  -9
DETROIT LAKES  CLEAR      1  -4  78 N9        30.35R WCI -14
MOORHEAD       CLEAR     -2  -6  84 N10       30.43R WCI -19
FERGUS FALLS   CLEAR      3  -4  72 N9        30.39R WCI -11
ELBOW LAKE     FAIR       7   2  81 N8        30.32R WCI  -6
MORRIS MN      PTCLDY     9   3  78 N10       30.31R WCI  -6
STAPLES        CLEAR      5  -2  72 N6        30.31R WCI  -6
WHEATON        PTCLDY     3  -2  78 N13       30.38R WCI -14
$$
  *****  WEATHER ELSEWHERE ACROSS MINNESOTA  *****

CITY           SKY/WX    TMP DP  RH WIND       PRES   REMARKS
DULUTH         CLEAR      4  -6  63 NW8       30.24R WCI  -9
INTRNTL FALLS  CLEAR     -6 -12  75 NW7       30.32R WCI -20
ELY            CLEAR     -6  -9  84 NW3       30.27R
CLOQUET        CLEAR      3  -6  66 W5        30.28R WCI  -6
BRAINERD       CLEAR      6  -3  66 N6        30.31R WCI  -4
HIBBING        CLEAR     -2  -9  72 NW7       30.29R WCI -15
ALEXANDRIA     PTCLDY    11   1  64 N9        30.28R WCI  -2
SAINT CLOUD    CLEAR     14   1  56 N6        30.29R WCI   5
MINNEAPOLIS    PTCLDY    15   6  67 N8        30.29R WCI   4
$$

  *****  WEATHER ACROSS SOUTH DAKOTA  *****

CITY           SKY/WX    TMP DP  RH WIND       PRES   REMARKS
SIOUX FALLS    CLOUDY    20  15  81 NE12      30.23R WCI   8
BROOKINGS      NOT AVBL
WATERTOWN      CLOUDY     6   0  76 NE13      30.24R WCI -10
HURON          LGT SNOW  16  12  84 NE7       30.28R FOG     WCI   6
SISSETON         N/A      4  -1  80 N10       30.34R WCI -11
ABERDEEN       MOCLDY     6  -2  69 NE13      30.34R WCI -10
MITCHELL       LGT SNOW  21  17  84 NE8       30.26R FOG     WCI  11
PIERRE         LGT SNOW  15  12  88 NE17      30.21R FOG     WCI  -1
MOBRIDGE       CLOUDY     9   3  77 E9        30.25R WCI  -4
RAPID CITY     LGT SNOW  18  14  84 NE6       30.08R FOG     WCI  10
$$

  *****  SOME WEATHER IN NEARBY STATES *****

CITY           SKY/WX    TMP DP  RH WIND       PRES   REMARKS
GLASGOW MT     CLOUDY     8  -1  66 NE13      30.37R WCI  -8
GREAT FALLS MT LGT SNOW  10   7  87 N16       30.28R FOG     WCI  -7
CHEYENNE WY    CLOUDY    22   9  57 CALM      29.86R
SCOTTSBLUFF NE CLOUDY    19  12  74 E7        29.95R WCI  10
OMAHA NE       CLOUDY    27  22  81 N8        30.18R WCI  19
DES MOINES IA  CLOUDY    31  22  69 NE6       30.18S
DAVENPORT IA   CLEAR     24  18  77 NE3       30.22R
CHICAGO IL     PTCLDY    27  18  69 W3        30.21R
EAU CLAIRE WI  CLEAR      9   4  80 N5        30.26R WCI   1
LA CROSSE WI   CLEAR     18  13  80 N5        30.27R WCI  11
$$

  *****  SOME NATIONAL WEATHER *****

CITY           SKY/WX    TMP DP  RH WIND       PRES   REMARKS
LA GUARDIA NY  CLOUDY    46  33  60 NW8       30.01R
RALEIGH NC     MOCLDY    55  53  93 CALM      30.06S FOG
ATLANTA GA     DRIZZLE   61  57  88 NW7       30.06F
NEW ORLEANS LA CLOUDY    57  54  89 NW6       30.09R
OKLAHOMA CITY  CLEAR     32  22  66 SE8       30.09S WCI  25
ALBUQUERQUE NM PTCLDY    29  12  49 CALM      30.08R
SALT LAKE CITY LGT SNOW  28  26  92 SE6       30.06S FOG     WCI  22
LOS ANGELES CA PTCLDY    54  43  66 W6        30.19R
BOISE ID       CLOUDY    28  28 100 CALM      30.08S FOG
SEATTLE WA     CLOUDY    39  36  87 NE5       30.15F
$$

*** WEATHER ACROSS MANITOBA...SASKATCHEWAN AND ONTARIO ***
                ***ONTARIO***

CITY           SKY/WX    TMP DP  RH WIND       PRES   REMARKS
GERALDTON      CLEAR     -8 -15  71 W12G18    30.12R WCI -27
THUNDER BAY    CLEAR      1  -8  66 W8        30.28R WCI -12
SIOUX LOOKOUT  CLEAR    -13 -18  77 NW9       30.25R WCI -31
TORONTO        PTCLDY    28  21  74 W8        30.09  WCI  20
BIG TROUT LK   CLEAR    -20 -26  76 W13G18    30.13S WCI -43
PICKLE LAKE    CRYSTALS -15 -22  70 W13G18    30.15R WCI -37
DRYDEN         CLEAR    -13 -18  77 W7        30.27R WCI -29
KENORA         CRYSTALS -13 -18  77 NW10      30.32R WCI -32
$$
                *** MANITOBA***

CITY           SKY/WX    TMP DP  RH WIND       PRES   REMARKS
BRANDON        CLEAR    -15 -20  76 N6        30.46R WCI -29
DAUPHIN        CLEAR    -20 -26  76 W8        30.53R WCI -39
ISLAND LAKE    PTCLDY   -18 -27  63 W10       30.31S WCI -39
PILOT MOUND      N/A    -13 -18  77 NW6         N/A  WCI -27
THE PAS        PTCLDY   -20 -26  76 NW9       30.56R WCI -40
THOMPSON       CLEAR    -18 -26  69 NW10      30.40S WCI -39
WINNIPEG       CLEAR    -13 -20  70 NW12      30.49R WCI -33
CHURCHILL      BLWGSNOW -11 -17  77 NW29G38   30.24  VSB 1   WCI -41
GILLAM         CLEAR    -18 -24  76 W13       30.28R WCI -41
$$
                ***SASKATCHEWAN***

CITY           SKY/WX    TMP DP  RH WIND       PRES   REMARKS
ESTEVAN        PTCLDY    -8 -13  77 NW9       30.41R WCI -25
KINDERSLEY     PTCLDY   -15 -20  76 N6        30.52R WCI -29
LLOYDMINSTER   CLOUDY    -8 -13  77 W5        30.55R WCI -19
PRINCE ALBERT  MOCLDY   -18 -24  76 W3        30.60
REGINA         CLEAR    -13 -18  77 N10       30.48R WCI -32
YORKTON        CLEAR    -18 -24  76 NW10      30.49R WCI -39


USA.gov is the U.S. government's official web portal to all federal, state and local government web resources and services.